Tracking 29777 objects as of 4-Oct-2024
HD Live streaming from Space Station
objects crossing your sky now

STARLINK-30380

Track STARLINK-30380 now!
10-day predictions
STARLINK-30380 is classified as:


NORAD ID: 57780
Int'l Code: 2023-134K
Perigee: 565.3 km
Apogee: 567.1 km
Inclination: 43.0 °
Period: 95.8 minutes
Semi major axis: 6937 km
RCS: Unknown
Launch date: September 4, 2023
Source: United States (US)
Launch site: AIR FORCE EASTERN TEST RANGE (AFETR)
Your satellite tracking list
Your tracking list is empty




NASA's NSSDC Master Catalog

Two Line Element Set (TLE):
1 57780U 23134K   24278.03646837  .00001598  00000-0  13333-3 0  9999
2 57780  43.0035 151.7972 0001359 271.1017  88.9669 15.02540018 60764
Source of the keplerian elements: AFSPC